Weather History for KGLS - September, 2013

Change the Weather History Date:

Saturday, September 21, 2013

  Actual Average Record
Temperature  
Mean Temperature 75 °F 81 °F  
Max Temperature 78 °F 87 °F 96 °F (2005)
Min Temperature 72 °F 75 °F 56 °F (1983)
Degree Days  
Heating Degree Days 0 0  
Month to date heating degree days 0 0  
Since 1 July heating degree days 0 0  
Cooling Degree Days 10 16  
Month to date cooling degree days 390 369  
Year to date cooling degree days 2784 2763  
Growing Degree Days 24 (Base 50)    
Moisture  
Dew Point 72 °F    
Average Humidity 88    
Maximum Humidity 93    
Minimum Humidity 82    
Precipitation  
Precipitation 0.78 in 0.14 in 5.39 in (1940)
Month to date precipitation 4.77 4.52  
Year to date precipitation 29.00 35.70  
Snow  
Snow 0.00 in - - ()
Month to date snowfall 0.0  
Since 1 July snowfall 0.0  
Since 1 September snowfall 0.0  
Snow Depth 0.00 in    
Sea Level Pressure  
Sea Level Pressure 29.77 in    
Wind  
Wind Speed 17 mph (NNE)    
Max Wind Speed 25 mph    
Max Gust Speed 36 mph    
Visibility 8 miles    
Events Rain , Thunderstorm    
T = Trace of Precipitation, MM = Missing Value Source: NWS Daily Summary

Daily Weather History Graph

Daily Weather History Graph

Search for Another Location

Airport or City:

Trip Planner

Search our weather history database for the weather conditions in past years. The results will help you decide how hot, cold, wet, or windy it might be!

Date:

Astronomy

Sep. 21, 2013 Rise Set
Actual Time 7:07 AM CDT 7:16 PM CDT
Civil Twilight 6:43 AM CDT 7:40 PM CDT
Nautical Twilight 6:16 AM CDT 8:08 PM CDT
Astronomical Twilight 5:48 AM CDT 8:35 PM CDT
Moon 8:43 PM CDT (9/21) 9:12 AM CDT (9/21)
Length of Visible Light 12h 56m
Length of Day
12h 09m
Waning Gibbous, 94% of the Moon is Illuminated
Sep 21
Waning Gibbous
Sep 26
Last Quarter
Oct 4
New
Oct 11
First Quarter
Oct 18
Full

Hourly Weather History & Observations

Time (CDT) Temp. Dew Point Humidity Pressure Visibility Wind Dir Wind Speed Gust Speed Precip Events Conditions
12:03 AM 73.4 °F 73.4 °F 100% 29.80 in 1.2 mi North 16.1 mph - 0.50 in Rain , Thunderstorm Heavy Thunderstorms and Rain
12:14 AM 73.4 °F 73.4 °F 100% 29.80 in 1.0 mi NNW 13.8 mph - 1.01 in Rain , Thunderstorm Heavy Thunderstorms and Rain
12:31 AM 73.4 °F 73.4 °F 100% 29.77 in 1.8 mi NNE 8.1 mph - 1.59 in Rain Heavy Rain
12:39 AM 73.4 °F 73.4 °F 100% 29.76 in 3.0 mi NNE 9.2 mph - 1.67 in Rain , Thunderstorm Heavy Rain
12:49 AM 73.4 °F 73.4 °F 100% 29.76 in 7.0 mi NNE 6.9 mph - 1.68 in Rain Light Rain
12:52 AM 73.9 °F 73.9 °F 100% 29.77 in 10.0 mi NE 5.8 mph - 1.68 in Rain Light Rain
1:52 AM - - N/A% 29.77 in 10.0 mi NNE 8.1 mph - 0.03 in   Overcast
2:52 AM - - N/A% 29.77 in 10.0 mi Calm Calm - 0.01 in   Mostly Cloudy
3:52 AM - - N/A% 29.75 in 9.0 mi North 4.6 mph - 0.03 in Rain Rain
4:05 AM - - N/A% 29.74 in 10.0 mi North 6.9 mph - 0.01 in Rain Light Rain
4:16 AM - - N/A% 29.73 in 10.0 mi NNE 8.1 mph - 0.02 in Rain Light Rain
4:31 AM - - N/A% 29.74 in 10.0 mi NE 11.5 mph - 0.02 in   Overcast
4:38 AM - - N/A% 29.74 in 10.0 mi NE 11.5 mph - 0.02 in   Overcast
4:52 AM - - N/A% 29.74 in 10.0 mi NNE 11.5 mph - 0.02 in   Overcast
5:19 AM - - N/A% 29.73 in 10.0 mi North 12.7 mph - 0.00 in Rain Light Rain
5:30 AM - - N/A% 29.73 in 10.0 mi North 15.0 mph - 0.00 in Rain Light Rain
5:38 AM - - N/A% 29.73 in 10.0 mi North 15.0 mph - 0.00 in   Overcast
5:52 AM - - N/A% 29.74 in 10.0 mi NNE 15.0 mph - 0.00 in   Overcast
5:57 AM - - N/A% 29.74 in 10.0 mi NNE 16.1 mph - N/A   Overcast
6:18 AM - - N/A% 29.74 in 10.0 mi North 20.7 mph 26.5 mph N/A   Overcast
6:52 AM - - N/A% 29.76 in 10.0 mi North 19.6 mph - N/A   Overcast
7:52 AM - - N/A% 29.77 in 7.0 mi NNE 20.7 mph 26.5 mph 0.04 in Rain Light Rain
8:01 AM - - N/A% 29.76 in 5.0 mi NNE 18.4 mph 27.6 mph 0.00 in Rain Light Rain
8:25 AM - - N/A% 29.76 in 10.0 mi NNE 21.9 mph 27.6 mph 0.01 in   Overcast
8:52 AM - - N/A% 29.78 in 10.0 mi NNE 21.9 mph 31.1 mph 0.01 in   Overcast
9:52 AM - - N/A% 29.79 in 4.0 mi NNE 21.9 mph 33.4 mph 0.01 in Rain Rain
10:52 AM - - N/A% 29.80 in 4.0 mi NNE 24.2 mph 32.2 mph 0.11 in Rain Light Rain
11:30 AM - - N/A% 29.81 in 1.8 mi NNE 19.6 mph 26.5 mph 0.15 in Rain Heavy Rain
11:38 AM - - N/A% 29.81 in 1.8 mi NNE 19.6 mph 26.5 mph 0.22 in Rain Heavy Rain
11:43 AM - - N/A% 29.80 in 2.5 mi NNE 23.0 mph 31.1 mph 0.24 in Rain Heavy Rain
11:46 AM - - N/A% 29.80 in 3.0 mi NNE 21.9 mph 31.1 mph 0.24 in Rain Rain
11:52 AM - - N/A% 29.81 in 5.0 mi NNE 20.7 mph 28.8 mph 0.25 in Rain Rain
12:14 PM - - N/A% 29.79 in 5.0 mi NNE 19.6 mph 28.8 mph 0.03 in Rain Light Rain
12:49 PM - - N/A% 29.78 in 2.5 mi North 25.3 mph 31.1 mph 0.15 in Rain Light Rain
12:52 PM - - N/A% 29.79 in 2.0 mi North 25.3 mph 32.2 mph 0.17 in Rain Light Rain
1:09 PM - - N/A% 29.78 in 4.0 mi NNE 18.4 mph 28.8 mph 0.07 in Rain Light Rain
1:52 PM - - N/A% 29.78 in 10.0 mi NNE 18.4 mph 25.3 mph 0.07 in   Overcast
2:48 PM - - N/A% 29.76 in 10.0 mi NNE 19.6 mph 27.6 mph 0.01 in Rain Light Rain
2:52 PM - - N/A% 29.77 in 10.0 mi North 21.9 mph 28.8 mph 0.01 in Rain Light Rain
3:00 PM - - N/A% 29.76 in 10.0 mi NNE 18.4 mph 26.5 mph N/A   Overcast
3:34 PM 75.2 °F 71.6 °F 89% 29.75 in 10.0 mi North 19.6 mph - N/A   Overcast
3:49 PM 75.2 °F 71.6 °F 89% 29.75 in 10.0 mi North 20.7 mph 27.6 mph N/A   Overcast
3:52 PM 75.0 °F 72.0 °F 90% 29.75 in 10.0 mi North 19.6 mph 27.6 mph N/A   Overcast
4:52 PM 75.9 °F 72.0 °F 87% 29.75 in 10.0 mi North 18.4 mph 27.6 mph N/A   Overcast
5:52 PM 75.0 °F 71.1 °F 87% 29.75 in 10.0 mi NNE 19.6 mph 28.8 mph N/A   Overcast
6:52 PM 73.0 °F 72.0 °F 96% 29.76 in 4.0 mi North 16.1 mph 26.5 mph 0.01 in   Overcast
7:07 PM 73.4 °F 71.6 °F 94% 29.76 in 5.0 mi NNE 19.6 mph 29.9 mph 0.01 in Rain Light Rain
7:52 PM 75.0 °F 71.1 °F 87% 29.78 in 10.0 mi NNE 17.3 mph 21.9 mph 0.01 in   Overcast
8:18 PM 73.4 °F 71.6 °F 94% 29.78 in 10.0 mi NNE 19.6 mph 27.6 mph N/A   Overcast
8:52 PM 73.9 °F 71.1 °F 91% 29.79 in 10.0 mi NNE 16.1 mph - 0.00 in   Overcast
9:52 PM 75.0 °F 70.0 °F 84% 29.80 in 10.0 mi NNE 19.6 mph 25.3 mph N/A   Overcast
10:52 PM 75.0 °F 70.0 °F 84% 29.80 in 10.0 mi NNE 16.1 mph - N/A   Overcast
11:52 PM 75.9 °F 70.0 °F 82% 29.79 in 10.0 mi NNE 16.1 mph 24.2 mph N/A   Overcast